Year,Month,Day,Hour,Minute,Value (Times are PST for temperature in C)
2014,07,11,00,00,19.10
2014,07,11,00,01,19.00
2014,07,11,00,02,19.00
2014,07,11,00,03,19.00
2014,07,11,00,04,18.90
2014,07,11,00,05,18.90
2014,07,11,00,06,18.90
2014,07,11,00,07,18.90
2014,07,11,00,08,18.90
2014,07,11,00,09,18.90
2014,07,11,00,10,19.00
2014,07,11,00,11,19.10
2014,07,11,00,12,19.20
2014,07,11,00,13,19.30
2014,07,11,00,14,19.60
2014,07,11,00,15,19.80
2014,07,11,00,16,20.00
2014,07,11,00,17,20.20
2014,07,11,00,18,20.30
2014,07,11,00,19,20.50
2014,07,11,00,20,20.60
2014,07,11,00,21,20.70
2014,07,11,00,22,20.80
2014,07,11,00,23,20.80
2014,07,11,00,24,20.90
2014,07,11,00,25,20.90
2014,07,11,00,26,21.00
2014,07,11,00,27,21.00
2014,07,11,00,28,21.00
2014,07,11,00,29,21.00
2014,07,11,00,30,21.00
2014,07,11,00,31,21.00
2014,07,11,00,32,21.00
2014,07,11,00,33,21.00
2014,07,11,00,34,21.00
2014,07,11,00,35,21.00
2014,07,11,00,36,21.00
2014,07,11,00,37,21.00
2014,07,11,00,38,21.00
2014,07,11,00,39,20.90
2014,07,11,00,40,20.90
2014,07,11,00,41,20.90
2014,07,11,00,42,20.90
2014,07,11,00,43,20.90
2014,07,11,00,44,20.90
2014,07,11,00,45,20.90
2014,07,11,00,46,20.90
2014,07,11,00,47,20.90
2014,07,11,00,48,20.90
2014,07,11,00,49,20.90
2014,07,11,00,50,20.90
2014,07,11,00,51,20.90
2014,07,11,00,52,20.90
2014,07,11,00,53,20.90
2014,07,11,00,54,20.90
2014,07,11,00,55,20.80
2014,07,11,00,56,20.80
2014,07,11,00,57,20.80
2014,07,11,00,58,20.80
2014,07,11,00,59,20.70
2014,07,11,01,00,20.70
2014,07,11,01,01,20.70
2014,07,11,01,02,20.60
2014,07,11,01,03,20.60
2014,07,11,01,04,20.60
2014,07,11,01,05,20.60
2014,07,11,01,06,20.50
2014,07,11,01,07,20.50
2014,07,11,01,08,20.50
2014,07,11,01,09,20.50
2014,07,11,01,10,20.50
2014,07,11,01,11,20.50
2014,07,11,01,12,20.50
2014,07,11,01,13,20.50
2014,07,11,01,14,20.40
2014,07,11,01,15,20.40
2014,07,11,01,16,20.40
2014,07,11,01,17,20.40
2014,07,11,01,18,20.30
2014,07,11,01,19,20.30
2014,07,11,01,20,20.30
2014,07,11,01,21,20.30
2014,07,11,01,22,20.20
2014,07,11,01,23,20.20
2014,07,11,01,24,20.20
2014,07,11,01,25,20.20
2014,07,11,01,26,20.10
2014,07,11,01,27,20.10
2014,07,11,01,28,20.10
2014,07,11,01,29,20.10
2014,07,11,01,30,20.10
2014,07,11,01,31,20.00
2014,07,11,01,32,20.00
2014,07,11,01,33,19.90
2014,07,11,01,34,19.90
2014,07,11,01,35,19.80
2014,07,11,01,36,19.80
2014,07,11,01,37,19.80
2014,07,11,01,38,19.80
2014,07,11,01,39,19.70
2014,07,11,01,40,19.70
2014,07,11,01,41,19.70
2014,07,11,01,42,19.70
2014,07,11,01,43,19.70
2014,07,11,01,44,19.70
2014,07,11,01,45,19.70
2014,07,11,01,46,19.70
2014,07,11,01,47,19.60
2014,07,11,01,48,19.60
2014,07,11,01,49,19.60
2014,07,11,01,50,19.60
2014,07,11,01,51,19.60
2014,07,11,01,52,19.60
2014,07,11,01,53,19.60
2014,07,11,01,54,19.60
2014,07,11,01,55,19.60
2014,07,11,01,56,19.60
2014,07,11,01,57,19.60
2014,07,11,01,58,19.60
2014,07,11,01,59,19.60
2014,07,11,02,00,19.60
2014,07,11,02,01,19.60
2014,07,11,02,02,19.50
2014,07,11,02,03,19.50
2014,07,11,02,04,19.50
2014,07,11,02,05,19.40
2014,07,11,02,06,19.40
2014,07,11,02,07,19.40
2014,07,11,02,08,19.40
2014,07,11,02,09,19.40
2014,07,11,02,10,19.40
2014,07,11,02,11,19.30
2014,07,11,02,12,19.30
2014,07,11,02,13,19.30
2014,07,11,02,14,19.30
2014,07,11,02,15,19.40
2014,07,11,02,16,19.40
2014,07,11,02,17,19.40
2014,07,11,02,18,19.40
2014,07,11,02,19,19.40
2014,07,11,02,20,19.40
2014,07,11,02,21,19.40
2014,07,11,02,22,19.40
2014,07,11,02,23,19.40
2014,07,11,02,24,19.40
2014,07,11,02,25,19.40
2014,07,11,02,26,19.40
2014,07,11,02,27,19.40
2014,07,11,02,28,19.40
2014,07,11,02,29,19.30
2014,07,11,02,30,19.30
2014,07,11,02,31,19.30
2014,07,11,02,32,19.30
2014,07,11,02,33,19.30
2014,07,11,02,34,19.30
2014,07,11,02,35,19.20
2014,07,11,02,36,19.20
2014,07,11,02,37,19.20
2014,07,11,02,38,19.20
2014,07,11,02,39,19.20
2014,07,11,02,40,19.20
2014,07,11,02,41,19.20
2014,07,11,02,42,19.10
2014,07,11,02,43,19.10
2014,07,11,02,44,19.10
2014,07,11,02,45,19.10
2014,07,11,02,46,19.10
2014,07,11,02,47,19.10
2014,07,11,02,48,19.10
2014,07,11,02,49,19.10
2014,07,11,02,50,19.10
2014,07,11,02,51,19.10
2014,07,11,02,52,19.10
2014,07,11,02,53,19.10
2014,07,11,02,54,19.00
2014,07,11,02,55,19.00
2014,07,11,02,56,19.00
2014,07,11,02,57,18.90
2014,07,11,02,58,18.90
2014,07,11,02,59,18.90
2014,07,11,03,00,18.90
2014,07,11,03,01,18.80
2014,07,11,03,02,18.80
2014,07,11,03,03,18.80
2014,07,11,03,04,18.80
2014,07,11,03,05,18.80
2014,07,11,03,06,18.80
2014,07,11,03,07,18.80
2014,07,11,03,08,18.80
2014,07,11,03,09,18.80
2014,07,11,03,10,18.80
2014,07,11,03,11,18.80
2014,07,11,03,12,18.90
2014,07,11,03,13,18.90
2014,07,11,03,14,19.00
2014,07,11,03,15,19.00
2014,07,11,03,16,19.10
2014,07,11,03,17,19.10
2014,07,11,03,18,19.10
2014,07,11,03,19,19.10
2014,07,11,03,20,19.10
2014,07,11,03,21,19.10
2014,07,11,03,22,19.00
2014,07,11,03,23,18.90
2014,07,11,03,24,18.80
2014,07,11,03,25,18.80
2014,07,11,03,26,18.70
2014,07,11,03,27,18.70
2014,07,11,03,28,18.60
2014,07,11,03,29,18.60
2014,07,11,03,30,18.50
2014,07,11,03,31,18.50
2014,07,11,03,32,18.40
2014,07,11,03,33,18.40
2014,07,11,03,34,18.30
2014,07,11,03,35,18.30
2014,07,11,03,36,18.20
2014,07,11,03,37,18.10
2014,07,11,03,38,18.10
2014,07,11,03,39,18.10
2014,07,11,03,40,18.10
2014,07,11,03,41,18.00
2014,07,11,03,42,18.00
2014,07,11,03,43,18.00
2014,07,11,03,44,18.00
2014,07,11,03,45,18.00
2014,07,11,03,46,18.00
2014,07,11,03,47,18.00
2014,07,11,03,48,18.00
2014,07,11,03,49,18.00
2014,07,11,03,50,17.90
2014,07,11,03,51,17.90
2014,07,11,03,52,17.80
2014,07,11,03,53,17.80
2014,07,11,03,54,17.70
2014,07,11,03,55,17.60
2014,07,11,03,56,17.60
2014,07,11,03,57,17.60
2014,07,11,03,58,17.60
2014,07,11,03,59,17.60
2014,07,11,04,00,17.60
2014,07,11,04,01,17.60
2014,07,11,04,02,17.60
2014,07,11,04,03,17.60
2014,07,11,04,04,17.60
2014,07,11,04,05,17.70
2014,07,11,04,06,17.70
2014,07,11,04,07,17.70
2014,07,11,04,08,17.60
2014,07,11,04,09,17.60
2014,07,11,04,10,17.60
2014,07,11,04,11,17.60
2014,07,11,04,12,17.70
2014,07,11,04,13,17.70
2014,07,11,04,14,17.70
2014,07,11,04,15,17.80
2014,07,11,04,16,17.80
2014,07,11,04,17,17.80
2014,07,11,04,18,17.80
2014,07,11,04,19,17.80
2014,07,11,04,20,17.80
2014,07,11,04,21,17.80
2014,07,11,04,22,17.80
2014,07,11,04,23,17.80
2014,07,11,04,24,17.80
2014,07,11,04,25,17.80
2014,07,11,04,26,17.80
2014,07,11,04,27,17.80
2014,07,11,04,28,17.80
2014,07,11,04,29,17.80
2014,07,11,04,30,17.80
2014,07,11,04,31,17.80
2014,07,11,04,32,17.80
2014,07,11,04,33,17.70
2014,07,11,04,34,17.70
2014,07,11,04,35,17.70
2014,07,11,04,36,17.70
2014,07,11,04,37,17.70
2014,07,11,04,38,17.70
2014,07,11,04,39,17.70
2014,07,11,04,40,17.60
2014,07,11,04,41,17.60
2014,07,11,04,42,17.60
2014,07,11,04,43,17.60
2014,07,11,04,44,17.60
2014,07,11,04,45,17.60
2014,07,11,04,46,17.60
2014,07,11,04,47,17.60
2014,07,11,04,48,17.60
2014,07,11,04,49,17.60
2014,07,11,04,50,17.70
2014,07,11,04,51,17.60
2014,07,11,04,52,17.60
2014,07,11,04,53,17.60
2014,07,11,04,54,17.60
2014,07,11,04,55,17.60
2014,07,11,04,56,17.60
2014,07,11,04,57,17.60
2014,07,11,04,58,17.50
2014,07,11,04,59,17.50
2014,07,11,05,00,17.40
2014,07,11,05,01,17.40
2014,07,11,05,02,17.30
2014,07,11,05,03,17.30
2014,07,11,05,04,17.30
2014,07,11,05,05,17.30
2014,07,11,05,06,17.20
2014,07,11,05,07,17.20
2014,07,11,05,08,17.20
2014,07,11,05,09,17.20
2014,07,11,05,10,17.30
2014,07,11,05,11,17.30
2014,07,11,05,12,17.30
2014,07,11,05,13,17.30
2014,07,11,05,14,17.30
2014,07,11,05,15,17.40
2014,07,11,05,16,17.40
2014,07,11,05,17,17.40
2014,07,11,05,18,17.40
2014,07,11,05,19,17.40
2014,07,11,05,20,17.40
2014,07,11,05,21,17.40
2014,07,11,05,22,17.40
2014,07,11,05,23,17.40
2014,07,11,05,24,17.40
2014,07,11,05,25,17.40
2014,07,11,05,26,17.40
2014,07,11,05,27,17.40
2014,07,11,05,28,17.40
2014,07,11,05,29,17.40
2014,07,11,05,30,17.50
2014,07,11,05,31,17.50
2014,07,11,05,32,17.40
2014,07,11,05,33,17.40
2014,07,11,05,34,17.40
2014,07,11,05,35,17.30
2014,07,11,05,36,17.30
2014,07,11,05,37,17.30
2014,07,11,05,38,17.30
2014,07,11,05,39,17.30
2014,07,11,05,40,17.30
2014,07,11,05,41,17.30
2014,07,11,05,42,17.30
2014,07,11,05,43,17.30
2014,07,11,05,44,17.30
2014,07,11,05,45,17.30
2014,07,11,05,46,17.30
2014,07,11,05,47,17.30
2014,07,11,05,48,17.30
2014,07,11,05,49,17.30
2014,07,11,05,50,17.30
2014,07,11,05,51,17.40
2014,07,11,05,52,17.40
2014,07,11,05,53,17.50
2014,07,11,05,54,17.50
2014,07,11,05,55,17.50
2014,07,11,05,56,17.50
2014,07,11,05,57,17.50
2014,07,11,05,58,17.60
2014,07,11,05,59,17.60
2014,07,11,06,00,17.60
2014,07,11,06,01,17.70
2014,07,11,06,02,17.70
2014,07,11,06,03,17.70
2014,07,11,06,04,17.80
2014,07,11,06,05,17.80
2014,07,11,06,06,17.80
2014,07,11,06,07,17.80
2014,07,11,06,08,17.90
2014,07,11,06,09,17.90
2014,07,11,06,10,17.90
2014,07,11,06,11,17.90
2014,07,11,06,12,18.00
2014,07,11,06,13,18.00
2014,07,11,06,14,18.00
2014,07,11,06,15,18.00
2014,07,11,06,16,18.10
2014,07,11,06,17,18.10
2014,07,11,06,18,18.10
2014,07,11,06,19,18.10
2014,07,11,06,20,18.10
2014,07,11,06,21,18.10
2014,07,11,06,22,18.10
2014,07,11,06,23,18.10
2014,07,11,06,24,18.10
2014,07,11,06,25,18.10
2014,07,11,06,26,18.10
2014,07,11,06,27,18.10
2014,07,11,06,28,18.20
2014,07,11,06,29,18.20
2014,07,11,06,30,18.20
2014,07,11,06,31,18.20
2014,07,11,06,32,18.20
2014,07,11,06,33,18.20
2014,07,11,06,34,18.20
2014,07,11,06,35,18.20
2014,07,11,06,36,18.20
2014,07,11,06,37,18.20
2014,07,11,06,38,18.20
2014,07,11,06,39,18.20
2014,07,11,06,40,18.20
2014,07,11,06,41,18.20
2014,07,11,06,42,18.20
2014,07,11,06,43,18.20
2014,07,11,06,44,18.20
2014,07,11,06,45,18.20
2014,07,11,06,46,18.30
2014,07,11,06,47,18.30
2014,07,11,06,48,18.40
2014,07,11,06,49,18.40
2014,07,11,06,50,18.50
2014,07,11,06,51,18.50
2014,07,11,06,52,18.60
2014,07,11,06,53,18.60
2014,07,11,06,54,18.70
2014,07,11,06,55,18.70
2014,07,11,06,56,18.70
2014,07,11,06,57,18.80
2014,07,11,06,58,18.80
2014,07,11,06,59,18.80
2014,07,11,07,00,18.80
2014,07,11,07,01,18.90
2014,07,11,07,02,18.90
2014,07,11,07,03,18.90
2014,07,11,07,04,18.90
2014,07,11,07,05,18.90
2014,07,11,07,06,18.90
2014,07,11,07,07,19.00
2014,07,11,07,08,19.00
2014,07,11,07,09,19.00
2014,07,11,07,10,19.10
2014,07,11,07,11,19.10
2014,07,11,07,12,19.10
2014,07,11,07,13,19.10
2014,07,11,07,14,19.20
2014,07,11,07,15,19.20
2014,07,11,07,16,19.20
2014,07,11,07,17,19.20
2014,07,11,07,18,19.20
2014,07,11,07,19,19.20
2014,07,11,07,20,19.10
2014,07,11,07,21,19.10
2014,07,11,07,22,19.10
2014,07,11,07,23,19.10
2014,07,11,07,24,19.10
2014,07,11,07,25,19.10
2014,07,11,07,26,19.10
2014,07,11,07,27,19.20
2014,07,11,07,28,19.20
2014,07,11,07,29,19.30
2014,07,11,07,30,19.30
2014,07,11,07,31,19.40
2014,07,11,07,32,19.40
2014,07,11,07,33,19.40
2014,07,11,07,34,19.50
2014,07,11,07,35,19.50
2014,07,11,07,36,19.60
2014,07,11,07,37,19.60
2014,07,11,07,38,19.60
2014,07,11,07,39,19.70
2014,07,11,07,40,19.70
2014,07,11,07,41,19.70
2014,07,11,07,42,19.70
2014,07,11,07,43,19.70
2014,07,11,07,44,19.70
2014,07,11,07,45,19.80
2014,07,11,07,46,19.80
2014,07,11,07,47,19.80
2014,07,11,07,48,19.80
2014,07,11,07,49,19.80
2014,07,11,07,50,19.90
2014,07,11,07,51,19.90
2014,07,11,07,52,19.90
2014,07,11,07,53,19.90
2014,07,11,07,54,19.90
2014,07,11,07,55,19.90
2014,07,11,07,56,20.00
2014,07,11,07,57,20.00
2014,07,11,07,58,20.10
2014,07,11,07,59,20.10
2014,07,11,08,00,20.10
2014,07,11,08,01,20.10
2014,07,11,08,02,20.20
2014,07,11,08,03,20.20
2014,07,11,08,04,20.20
2014,07,11,08,05,20.20
2014,07,11,08,06,20.20
2014,07,11,08,07,20.30
2014,07,11,08,08,20.30
2014,07,11,08,09,20.30
2014,07,11,08,10,20.30
2014,07,11,08,11,20.40
2014,07,11,08,12,20.40
2014,07,11,08,13,20.50
2014,07,11,08,14,20.50
2014,07,11,08,15,20.60
2014,07,11,08,16,20.60
2014,07,11,08,17,20.60
2014,07,11,08,18,20.60
2014,07,11,08,19,20.60
2014,07,11,08,20,20.60
2014,07,11,08,21,20.60
2014,07,11,08,22,20.60
2014,07,11,08,23,20.60
2014,07,11,08,24,20.60
2014,07,11,08,25,20.50
2014,07,11,08,26,20.50
2014,07,11,08,27,20.50
2014,07,11,08,28,20.50
2014,07,11,08,29,20.60
2014,07,11,08,30,20.60
2014,07,11,08,31,20.60
2014,07,11,08,32,20.60
2014,07,11,08,33,20.70
2014,07,11,08,34,20.80
2014,07,11,08,35,20.80
2014,07,11,08,36,20.90
2014,07,11,08,37,20.90
2014,07,11,08,38,20.90
2014,07,11,08,39,20.90
2014,07,11,08,40,20.90
2014,07,11,08,41,20.90
2014,07,11,08,42,20.80
2014,07,11,08,43,20.80
2014,07,11,08,44,20.80
2014,07,11,08,45,20.80
2014,07,11,08,46,20.80
2014,07,11,08,47,20.90
2014,07,11,08,48,20.90
2014,07,11,08,49,21.00
2014,07,11,08,50,21.10
2014,07,11,08,51,21.10
2014,07,11,08,52,21.10
2014,07,11,08,53,21.20
2014,07,11,08,54,21.20
2014,07,11,08,55,21.10
2014,07,11,08,56,21.10
2014,07,11,08,57,21.10
2014,07,11,08,58,21.10
2014,07,11,08,59,21.10
2014,07,11,09,00,21.10
2014,07,11,09,01,21.10
2014,07,11,09,02,21.10
2014,07,11,09,03,21.10
2014,07,11,09,04,21.10
2014,07,11,09,05,21.10
2014,07,11,09,06,21.10
2014,07,11,09,07,21.10
2014,07,11,09,08,21.10
2014,07,11,09,09,21.10
2014,07,11,09,10,21.20
2014,07,11,09,11,21.20
2014,07,11,09,12,21.20
2014,07,11,09,13,21.20
2014,07,11,09,14,21.30
2014,07,11,09,15,21.30
2014,07,11,09,16,21.30
2014,07,11,09,17,21.30
2014,07,11,09,18,21.40
2014,07,11,09,19,21.40
2014,07,11,09,20,21.40
2014,07,11,09,21,21.30
2014,07,11,09,22,21.30
2014,07,11,09,23,21.30
2014,07,11,09,24,21.30
2014,07,11,09,25,21.30
2014,07,11,09,26,21.40
2014,07,11,09,27,21.40
2014,07,11,09,28,21.40
2014,07,11,09,29,21.40
2014,07,11,09,30,21.50
2014,07,11,09,31,21.50
2014,07,11,09,32,21.60
2014,07,11,09,33,21.60
2014,07,11,09,34,21.60
2014,07,11,09,35,21.60
2014,07,11,09,36,21.60
2014,07,11,09,37,21.60
2014,07,11,09,38,21.60
2014,07,11,09,39,21.70
2014,07,11,09,40,21.70
2014,07,11,09,41,21.70
2014,07,11,09,42,21.80
2014,07,11,09,43,21.80
2014,07,11,09,44,21.80
2014,07,11,09,45,21.80
2014,07,11,09,46,21.90
2014,07,11,09,47,21.90
2014,07,11,09,48,21.90
2014,07,11,09,49,21.90
2014,07,11,09,50,22.00
2014,07,11,09,51,22.00
2014,07,11,09,52,22.00
2014,07,11,09,53,22.00
2014,07,11,09,54,22.00
2014,07,11,09,55,22.10
2014,07,11,09,56,22.10
2014,07,11,09,57,22.10
2014,07,11,09,58,22.20
2014,07,11,09,59,22.20
2014,07,11,10,00,22.20
2014,07,11,10,01,22.30
2014,07,11,10,02,22.30
2014,07,11,10,03,22.30
2014,07,11,10,04,22.30
2014,07,11,10,05,22.30
2014,07,11,10,06,22.40
2014,07,11,10,07,22.40
2014,07,11,10,08,22.40
2014,07,11,10,09,22.40
2014,07,11,10,10,22.40
2014,07,11,10,11,22.30
2014,07,11,10,12,22.20
2014,07,11,10,13,22.10
2014,07,11,10,14,22.00
2014,07,11,10,15,21.80
2014,07,11,10,16,21.70
2014,07,11,10,17,21.60
2014,07,11,10,18,21.60
2014,07,11,10,19,21.50
2014,07,11,10,20,21.30
2014,07,11,10,21,21.20
2014,07,11,10,22,21.10
2014,07,11,10,23,21.00
2014,07,11,10,24,20.90
2014,07,11,10,25,20.80
2014,07,11,10,26,20.70
2014,07,11,10,27,20.70
2014,07,11,10,28,20.60
2014,07,11,10,29,20.60
2014,07,11,10,30,20.50
2014,07,11,10,31,20.50
2014,07,11,10,32,20.50
2014,07,11,10,33,20.50
2014,07,11,10,34,20.60
2014,07,11,10,35,20.60
2014,07,11,10,36,20.60
2014,07,11,10,37,20.60
2014,07,11,10,38,20.60
2014,07,11,10,39,20.60
2014,07,11,10,40,20.70
2014,07,11,10,41,20.70
2014,07,11,10,42,20.70
2014,07,11,10,43,20.60
2014,07,11,10,44,20.50
2014,07,11,10,45,20.50
2014,07,11,10,46,20.40
2014,07,11,10,47,20.30
2014,07,11,10,48,20.30
2014,07,11,10,49,20.20
2014,07,11,10,50,20.20
2014,07,11,10,51,20.20
2014,07,11,10,52,20.20
2014,07,11,10,53,20.10
2014,07,11,10,54,20.10
2014,07,11,10,55,20.10
2014,07,11,10,56,20.10
2014,07,11,10,57,20.10
2014,07,11,10,58,20.20
2014,07,11,10,59,20.20
2014,07,11,11,00,20.30
2014,07,11,11,01,20.30
2014,07,11,11,02,20.20
2014,07,11,11,03,20.20
2014,07,11,11,04,20.20
2014,07,11,11,05,20.10
2014,07,11,11,06,20.10
2014,07,11,11,07,20.10
2014,07,11,11,08,20.10
2014,07,11,11,09,20.20
2014,07,11,11,10,20.20
2014,07,11,11,11,20.30
2014,07,11,11,12,20.20
2014,07,11,11,13,20.20
2014,07,11,11,14,20.20
2014,07,11,11,15,20.20
2014,07,11,11,16,20.10
2014,07,11,11,17,20.10
2014,07,11,11,18,20.00
2014,07,11,11,19,20.10
2014,07,11,11,20,20.10
2014,07,11,11,21,20.20
2014,07,11,11,22,20.20
2014,07,11,11,23,20.30
2014,07,11,11,24,20.40
2014,07,11,11,25,20.50
2014,07,11,11,26,20.60
2014,07,11,11,27,20.60
2014,07,11,11,28,20.60
2014,07,11,11,29,20.60
2014,07,11,11,30,20.60
2014,07,11,11,31,20.70
2014,07,11,11,32,20.70
2014,07,11,11,33,20.80
2014,07,11,11,34,20.80
2014,07,11,11,35,20.80
2014,07,11,11,36,20.90
2014,07,11,11,37,20.90
2014,07,11,11,38,20.90
2014,07,11,11,39,20.90
2014,07,11,11,40,20.90
2014,07,11,11,41,20.90
2014,07,11,11,42,21.00
2014,07,11,11,43,21.00
2014,07,11,11,44,21.10
2014,07,11,11,45,21.20
2014,07,11,11,46,21.30
2014,07,11,11,47,21.50
2014,07,11,11,48,21.60
2014,07,11,11,49,21.70
2014,07,11,11,50,21.70
2014,07,11,11,51,21.80
2014,07,11,11,52,21.80
2014,07,11,11,53,21.90
2014,07,11,11,54,21.90
2014,07,11,11,55,22.00
2014,07,11,11,56,22.10
2014,07,11,11,57,22.10
2014,07,11,11,58,22.10
2014,07,11,11,59,22.20
2014,07,11,12,00,22.20
2014,07,11,12,01,22.30
2014,07,11,12,02,22.40
2014,07,11,12,03,22.50
2014,07,11,12,04,22.60
2014,07,11,12,05,22.60
2014,07,11,12,06,22.60
2014,07,11,12,07,22.60
2014,07,11,12,08,22.60
2014,07,11,12,09,22.50
2014,07,11,12,10,22.40
2014,07,11,12,11,22.40
2014,07,11,12,12,22.30
2014,07,11,12,13,22.30
2014,07,11,12,14,22.30
2014,07,11,12,15,22.20
2014,07,11,12,16,22.20
2014,07,11,12,17,22.10
2014,07,11,12,18,22.00
2014,07,11,12,19,21.90
2014,07,11,12,20,21.90
2014,07,11,12,21,21.80
2014,07,11,12,22,21.80
2014,07,11,12,23,21.70
2014,07,11,12,24,21.60
2014,07,11,12,25,21.60
2014,07,11,12,26,21.50
2014,07,11,12,27,21.50
2014,07,11,12,28,21.60
2014,07,11,12,29,21.70
2014,07,11,12,30,21.70
2014,07,11,12,31,21.80
2014,07,11,12,32,21.80
2014,07,11,12,33,21.80
2014,07,11,12,34,21.90
2014,07,11,12,35,21.90
2014,07,11,12,36,22.00
2014,07,11,12,37,22.00
2014,07,11,12,38,22.10
2014,07,11,12,39,22.10
2014,07,11,12,40,22.20
2014,07,11,12,41,22.30
2014,07,11,12,42,22.30
2014,07,11,12,43,22.30
2014,07,11,12,44,22.40
2014,07,11,12,45,22.50
2014,07,11,12,46,22.50
2014,07,11,12,47,22.60
2014,07,11,12,48,22.70
2014,07,11,12,49,22.80
2014,07,11,12,50,22.90
2014,07,11,12,51,22.90
2014,07,11,12,52,23.00
2014,07,11,12,53,23.10
2014,07,11,12,54,23.00
2014,07,11,12,55,23.00
2014,07,11,12,56,23.00
2014,07,11,12,57,23.10
2014,07,11,12,58,23.10
2014,07,11,12,59,23.10
2014,07,11,13,00,23.20
2014,07,11,13,01,23.30
2014,07,11,13,02,23.40
2014,07,11,13,03,23.50
2014,07,11,13,04,23.50
2014,07,11,13,05,23.60
2014,07,11,13,06,23.60
2014,07,11,13,07,23.60
2014,07,11,13,08,23.70
2014,07,11,13,09,23.70
2014,07,11,13,10,23.70
2014,07,11,13,11,23.80
2014,07,11,13,12,23.80
2014,07,11,13,13,23.80
2014,07,11,13,14,23.90
2014,07,11,13,15,23.90
2014,07,11,13,16,24.00
2014,07,11,13,17,24.00
2014,07,11,13,18,24.10
2014,07,11,13,19,24.10
2014,07,11,13,20,24.20
2014,07,11,13,21,24.20
2014,07,11,13,22,24.30
2014,07,11,13,23,24.30
2014,07,11,13,24,24.30
2014,07,11,13,25,24.30
2014,07,11,13,26,24.40
2014,07,11,13,27,24.40
2014,07,11,13,28,24.40
2014,07,11,13,29,24.50
2014,07,11,13,30,24.60
2014,07,11,13,31,24.70
2014,07,11,13,32,24.70
2014,07,11,13,33,24.70
2014,07,11,13,34,24.70
2014,07,11,13,35,24.80
2014,07,11,13,36,25.10
2014,07,11,13,37,25.10
2014,07,11,13,38,25.10
2014,07,11,13,39,25.00
2014,07,11,13,40,24.90
2014,07,11,13,41,24.90
2014,07,11,13,42,24.90
2014,07,11,13,43,25.00
2014,07,11,13,44,25.00
2014,07,11,13,45,25.10
2014,07,11,13,46,25.20
2014,07,11,13,47,25.20
2014,07,11,13,48,25.20
2014,07,11,13,49,25.20
2014,07,11,13,50,25.30
2014,07,11,13,51,25.30
2014,07,11,13,52,25.30
2014,07,11,13,53,25.40
2014,07,11,13,54,25.40
2014,07,11,13,55,25.50
2014,07,11,13,56,25.50
2014,07,11,13,57,25.60
2014,07,11,13,58,25.60
2014,07,11,13,59,25.60
2014,07,11,14,00,25.50
2014,07,11,14,01,25.50
2014,07,11,14,02,25.50
2014,07,11,14,03,25.50
2014,07,11,14,04,25.50
2014,07,11,14,05,25.50
2014,07,11,14,06,25.60
2014,07,11,14,07,25.60
2014,07,11,14,08,25.60
2014,07,11,14,09,25.60
2014,07,11,14,10,25.50
2014,07,11,14,11,25.50
2014,07,11,14,12,25.60
2014,07,11,14,13,25.60
2014,07,11,14,14,25.60
2014,07,11,14,15,25.60
2014,07,11,14,16,25.60
2014,07,11,14,17,25.60
2014,07,11,14,18,25.60
2014,07,11,14,19,25.70
2014,07,11,14,20,25.70
2014,07,11,14,21,25.70
2014,07,11,14,22,25.70
2014,07,11,14,23,25.70
2014,07,11,14,24,25.70
2014,07,11,14,25,25.80
2014,07,11,14,26,25.80
2014,07,11,14,27,25.90
2014,07,11,14,28,25.90
2014,07,11,14,29,26.00
2014,07,11,14,30,26.00
2014,07,11,14,31,26.10
2014,07,11,14,32,26.20
2014,07,11,14,33,26.20
2014,07,11,14,34,26.20
2014,07,11,14,35,26.20
2014,07,11,14,36,26.10
2014,07,11,14,37,26.10
2014,07,11,14,38,26.00
2014,07,11,14,39,26.00
2014,07,11,14,40,25.90
2014,07,11,14,41,25.90
2014,07,11,14,42,25.90
2014,07,11,14,43,26.00
2014,07,11,14,44,26.00
2014,07,11,14,45,26.00
2014,07,11,14,46,26.00
2014,07,11,14,47,26.10
2014,07,11,14,48,26.10
2014,07,11,14,49,26.10
2014,07,11,14,50,26.10
2014,07,11,14,51,26.10
2014,07,11,14,52,26.10
2014,07,11,14,53,26.10
2014,07,11,14,54,26.10
2014,07,11,14,55,26.10
2014,07,11,14,56,26.20
2014,07,11,14,57,26.30
2014,07,11,14,58,26.30
2014,07,11,14,59,26.40
2014,07,11,15,00,26.40
2014,07,11,15,01,26.50
2014,07,11,15,02,26.50
2014,07,11,15,03,26.50
2014,07,11,15,04,26.60
2014,07,11,15,05,26.60
2014,07,11,15,06,26.60
2014,07,11,15,07,26.60
2014,07,11,15,08,26.60
2014,07,11,15,09,26.60
2014,07,11,15,10,26.60
2014,07,11,15,11,26.60
2014,07,11,15,12,26.70
2014,07,11,15,13,26.70
2014,07,11,15,14,26.70
2014,07,11,15,15,26.70
2014,07,11,15,16,26.70
2014,07,11,15,17,26.80
2014,07,11,15,18,26.80
2014,07,11,15,19,26.80
2014,07,11,15,20,26.80
2014,07,11,15,21,26.90
2014,07,11,15,22,26.90
2014,07,11,15,23,27.00
2014,07,11,15,24,27.10
2014,07,11,15,25,27.20
2014,07,11,15,26,27.30
2014,07,11,15,27,27.40
2014,07,11,15,28,27.50
2014,07,11,15,29,27.60
2014,07,11,15,30,27.80
2014,07,11,15,31,28.00
2014,07,11,15,32,28.10
2014,07,11,15,33,28.30
2014,07,11,15,34,28.40
2014,07,11,15,35,28.50
2014,07,11,15,36,28.60
2014,07,11,15,37,28.70
2014,07,11,15,38,28.70
2014,07,11,15,39,28.80
2014,07,11,15,40,28.70
2014,07,11,15,41,28.70
2014,07,11,15,42,28.70
2014,07,11,15,43,28.70
2014,07,11,15,44,28.80
2014,07,11,15,45,28.80
2014,07,11,15,46,28.80
2014,07,11,15,47,28.90
2014,07,11,15,48,29.00
2014,07,11,15,49,29.00
2014,07,11,15,50,29.10
2014,07,11,15,51,29.00
2014,07,11,15,52,29.00
2014,07,11,15,53,29.00
2014,07,11,15,54,29.00
2014,07,11,15,55,29.00
2014,07,11,15,56,29.10
2014,07,11,15,57,29.10
2014,07,11,15,58,29.20
2014,07,11,15,59,29.20
2014,07,11,16,00,29.30
2014,07,11,16,01,29.30
2014,07,11,16,02,29.30
2014,07,11,16,03,29.40
2014,07,11,16,04,29.40
2014,07,11,16,05,29.50
2014,07,11,16,06,29.60
2014,07,11,16,07,29.70
2014,07,11,16,08,29.70
2014,07,11,16,09,29.80
2014,07,11,16,10,29.80
2014,07,11,16,11,29.80
2014,07,11,16,12,29.90
2014,07,11,16,13,30.00
2014,07,11,16,14,30.10
2014,07,11,16,15,30.10
2014,07,11,16,16,30.10
2014,07,11,16,17,30.10
2014,07,11,16,18,30.10
2014,07,11,16,19,30.20
2014,07,11,16,20,30.30
2014,07,11,16,21,30.50
2014,07,11,16,22,30.60
2014,07,11,16,23,30.70
2014,07,11,16,24,30.70
2014,07,11,16,25,30.70
2014,07,11,16,26,30.70
2014,07,11,16,27,30.70
2014,07,11,16,28,30.80
2014,07,11,16,29,30.90
2014,07,11,16,30,30.90
2014,07,11,16,31,30.90
2014,07,11,16,32,30.80
2014,07,11,16,33,30.80
2014,07,11,16,34,30.80
2014,07,11,16,35,30.80
2014,07,11,16,36,30.90
2014,07,11,16,37,30.90
2014,07,11,16,38,30.90
2014,07,11,16,39,30.90
2014,07,11,16,40,31.00
2014,07,11,16,41,31.00
2014,07,11,16,42,31.10
2014,07,11,16,43,31.10
2014,07,11,16,44,31.10
2014,07,11,16,45,31.10
2014,07,11,16,46,31.10
2014,07,11,16,47,31.10
2014,07,11,16,48,31.00
2014,07,11,16,49,30.90
2014,07,11,16,50,30.80
2014,07,11,16,51,30.70
2014,07,11,16,52,30.70
2014,07,11,16,53,30.70
2014,07,11,16,54,30.70
2014,07,11,16,55,30.80
2014,07,11,16,56,30.90
2014,07,11,16,57,30.90
2014,07,11,16,58,30.90
2014,07,11,16,59,30.80
2014,07,11,17,00,30.80
2014,07,11,17,01,30.70
2014,07,11,17,02,30.60
2014,07,11,17,03,30.60
2014,07,11,17,04,30.60
2014,07,11,17,05,30.50
2014,07,11,17,06,30.50
2014,07,11,17,07,30.40
2014,07,11,17,08,30.40
2014,07,11,17,09,30.40
2014,07,11,17,10,30.50
2014,07,11,17,11,30.50
2014,07,11,17,12,30.50
2014,07,11,17,13,30.50
2014,07,11,17,14,30.50
2014,07,11,17,15,30.40
2014,07,11,17,16,30.40
2014,07,11,17,17,30.30
2014,07,11,17,18,30.20
2014,07,11,17,19,30.10